Dewpoint
23 20 20 30 37 39 40 39 39 41 46 52 51 52 57 59 59 59 59 60 61 61 62 63 63 64 64 64 66 67 67 70 71 69 68 68 66 67 67 68 70 71 72 70
21 19 22 24 35 38 39 38 39 41 47 50 49 50 56 59 58 57 57 59 59 60 61 62 63 63 63 63 64 66 67 69 70 70 70 69 68 67 67 69 71 72 71 72
16 17 21 24 31 33 35 34 38 37 44 48 49 47 55 58 58 59 58 59 59 60 61 63 63 63 62 63 65 65 67 68 69 70 70 70 70 69 67 67 67 69 71 72
18 19 19 21 24 31 30 35 36 40 40 36 47 35 46 54 57 58 58 59 58 60 61 63 64 64 63 63 64 66 67 68 68 70 69 71 67 64 66 68 68 69 71 71
18 18 19 21 24 27 28 33 36 38 39 39 43 37 39 51 54 55 57 58 59 59 60 61 62 64 64 64 64 66 67 68 70 69 70 68 69 66 67 67 70 72 72 72
18 18 20 20 24 28 38 38 37 38 37 35 37 36 34 46 50 53 54 57 59 59 59 61 62 64 64 65 65 66 68 69 69 69 69 70 70 70 67 68 68 67 68 69
16 17 17 20 23 31 33 33 33 34 33 32 36 39 37 41 48 50 54 57 59 60 60 61 62 63 65 65 65 66 68 69 68 68 69 70 70 71 71 71 68 69 67 68
13 12 16 18 19 30 28 29 29 31 29 29 35 33 32 39 40 50 54 56 58 59 60 61 61 63 64 64 66 66 67 69 69 69 70 71 72 68 68 70 68 68 68 68
14 10 14 18 18 27 32 31 29 30 30 29 30 33 33 43 44 48 53 55 57 59 60 61 61 62 64 65 65 66 67 69 69 69 70 71 71 71 70 72 72 68 72 71
21 13 11 13 21 24 29 30 27 31 31 30 29 32 30 38 42 50 52 55 57 59 59 61 62 63 63 64 65 66 66 68 68 68 69 70 71 71 71 71 71 72 72 73
15 15 13 15 17 21 28 29 29 28 30 28 28 28 39 39 43 50 51 54 57 59 59 60 61 62 64 64 65 66 66 67 68 69 70 70 70 71 71 71 72 72 73 75
18 13 14 14 14 20 25 29 30 28 33 31 29 27 31 36 40 48 50 54 55 57 58 60 61 62 64 64 64 65 66 67 69 70 71 70 70 71 71 72 72 73 74 74
21 16 14 15 14 20 22 27 30 31 33 34 27 27 32 41 46 48 48 51 56 58 59 60 62 63 64 65 66 66 67 67 68 70 70 70 70 70 71 72 72 73 74 71
37 22 21 9 15 17 20 23 28 28 29 30 27 30 34 34 44 48 49 52 55 59 60 60 63 66 67 67 68 68 68 67 68 69 69 70 70 70 71 72 73 74 72 68
23 27 23 16 17 15 19 17 23 27 29 27 28 30 32 38 43 49 50 52 54 57 58 60 62 66 66 68 68 68 68 69 69 69 69 71 71 72 72 73 74 73 70 66
29 28 27 20 14 16 16 21 19 23 25 28 27 31 33 39 40 39 48 52 54 57 57 61 63 64 66 67 68 68 69 70 71 70 70 71 72 73 73 74 72 70 66 61
31 24 29 21 19 17 17 18 22 25 25 27 27 33 36 36 37 41 43 51 54 55 57 59 61 64 65 66 68 68 69 68 70 71 72 72 73 73 73 73 71 67 63 58
31 30 23 23 24 18 19 18 17 23 28 28 31 34 37 39 40 39 45 46 52 55 56 59 59 63 64 65 67 68 68 70 70 71 71 72 73 72 73 72 70 66 61 57
30 27 17 25 19 19 19 21 19 20 23 28 32 33 35 37 36 39 43 51 53 55 57 59 59 61 64 64 67 68 69 68 69 70 71 72 72 72 72 70 68 64 59 54
28 31 17 26 22 19 24 21 26 23 23 30 29 32 31 37 30 37 50 46 52 55 60 61 60 60 62 66 68 68 68 69 69 70 71 72 73 72 70 69 67 63 59 55
25 24 21 19 20 25 30 23 29 26 25 33 34 38 37 38 40 48 49 48 51 57 58 59 61 61 64 67 68 67 68 69 70 71 71 72 72 71 70 68 66 63 57 55
27 25 21 24 23 22 30 29 28 36 44 39 41 41 44 46 47 49 48 49 52 56 57 58 61 63 67 68 68 69 69 71 72 72 72 72 71 69 67 67 64 62 57 55
32 32 30 27 25 40 44 48 44 46 43 41 44 41 45 43 43 47 50 52 54 58 63 59 60 64 66 69 68 69 72 73 73 72 71 71 70 68 67 66 63 58 57 53
40 42 42 44 43 47 46 50 52 55 57 54 43 42 42 43 47 48 52 52 56 62 65 63 63 65 68 68 69 71 72 72 71 70 69 69 68 66 66 64 62 58 55 54
39 41 44 47 45 40 48 48 53 55 57 58 54 41 42 48 48 51 54 58 59 64 67 67 68 69 69 70 70 70 70 71 69 68 68 67 66 65 64 63 62 59 58 55
38 37 33 38 37 38 41 47 51 53 55 57 57 49 43 46 51 53 55 58 60 65 69 69 69 69 69 70 69 68 70 70 68 67 66 65 64 63 60 57 52 46 50 48
Lifted_Index
4 4 3 2 1 1 0 0 1 1 0 -1 -1 -1 -1 -1 -0 0 -0 -0 0 0 1 1 1 2 2 2 2 2 2 1 -0 -0 -0 -0 -1 -1 -1 -2 -3 -4 -5 -5
4 4 3 2 2 1 1 0 0 0 -0 -1 -1 -1 -1 -1 0 0 0 0 0 0 1 1 1 2 2 2 3 2 2 1 0 -0 -0 -1 -1 -1 -1 -2 -3 -4 -5 -5
3 3 3 2 2 2 1 1 0 -0 -0 -0 -0 -0 -0 -1 -0 0 0 0 0 0 1 1 1 2 2 3 3 3 3 2 1 0 -0 -1 -1 -1 -1 -2 -3 -4 -5 -5
3 4 3 3 2 2 1 0 -0 -0 -0 -0 0 0 0 -0 -0 0 0 0 0 0 1 1 1 2 2 2 2 2 2 2 2 1 0 -1 -1 -1 -2 -3 -4 -5 -5 -6
4 4 4 3 3 2 1 0 0 0 -0 -0 0 0 0 -0 -0 -0 0 0 0 0 1 1 1 1 2 2 2 2 2 2 2 1 0 -1 -1 -2 -2 -3 -4 -5 -5 -6
5 5 5 4 3 2 1 0 0 0 -0 0 0 0 -0 -0 -0 -0 0 0 0 0 1 1 1 1 1 1 1 2 2 2 2 1 0 -1 -2 -2 -3 -4 -4 -5 -5 -6
4 5 5 4 3 2 1 0 0 -0 -0 0 0 0 0 0 0 0 0 0 0 0 0 1 1 1 1 1 1 1 1 1 1 1 0 -1 -2 -3 -3 -4 -5 -5 -5 -5
3 4 5 5 4 2 2 1 0 0 -0 0 1 1 0 1 1 1 0 0 0 0 -0 0 1 1 1 1 1 1 1 1 1 0 -0 -1 -2 -3 -4 -5 -5 -5 -5 -6
3 4 5 5 4 3 2 1 1 1 0 0 1 1 0 1 2 1 0 0 0 0 -0 0 0 1 1 1 1 1 1 1 0 0 -1 -2 -2 -3 -4 -5 -5 -6 -6 -6
5 4 4 5 4 3 2 2 1 1 1 0 0 0 0 1 2 1 1 0 0 0 0 0 0 0 1 1 1 1 1 1 0 -0 -1 -2 -3 -4 -5 -5 -6 -6 -7 -7
6 5 4 4 4 3 2 2 2 2 1 1 0 0 0 1 2 1 1 1 0 -0 -0 0 0 0 0 0 0 1 1 1 0 -0 -1 -2 -3 -4 -5 -6 -6 -7 -7 -8
7 6 4 4 4 4 3 2 2 2 2 1 1 0 1 1 1 1 1 1 0 -0 -0 -0 -0 0 0 0 0 0 0 0 -0 -1 -1 -2 -3 -5 -6 -6 -7 -7 -8 -8
7 6 4 3 4 4 3 2 2 2 2 1 1 1 1 1 1 1 1 0 -0 -1 -1 -0 -0 -0 -0 -0 -0 -0 -0 -0 -0 -1 -1 -2 -4 -5 -6 -7 -7 -8 -8 -7
7 6 5 4 4 4 3 2 2 2 2 2 1 1 1 1 1 0 -0 -0 -0 -1 -1 -1 -1 -1 -1 -1 -1 -1 -1 -1 -1 -1 -2 -3 -5 -6 -7 -7 -8 -8 -7 -7
7 6 6 5 5 4 3 3 3 3 2 2 2 1 1 2 1 0 -0 -1 -1 -1 -1 -1 -1 -1 -1 -1 -1 -1 -1 -1 -1 -2 -3 -4 -6 -7 -7 -8 -8 -7 -7 -6
7 6 6 6 5 5 4 3 3 3 3 2 2 2 2 2 2 1 -0 -1 -1 -1 -1 -1 -2 -2 -2 -2 -2 -1 -1 -2 -2 -3 -4 -5 -6 -7 -8 -7 -7 -6 -6 -6
7 7 6 5 5 5 4 4 4 3 3 3 3 2 2 2 2 2 1 -0 -1 -1 -1 -1 -1 -2 -2 -2 -2 -2 -2 -2 -3 -4 -5 -5 -6 -7 -7 -7 -6 -6 -6 -7
8 7 6 5 4 4 5 6 5 5 4 4 4 3 2 2 2 2 1 1 0 -0 -1 -1 -1 -1 -2 -2 -2 -3 -3 -3 -4 -4 -5 -5 -6 -6 -6 -6 -5 -6 -6 -7
10 9 6 5 4 4 6 6 6 5 5 5 5 4 3 3 3 2 2 1 1 1 -0 -1 -1 -1 -2 -2 -3 -3 -3 -3 -4 -4 -5 -6 -6 -6 -5 -5 -5 -6 -7 -7
9 8 6 5 4 4 6 7 6 5 5 5 5 4 4 3 3 3 2 2 1 1 0 -0 -1 -1 -1 -2 -2 -2 -3 -3 -4 -5 -5 -6 -6 -5 -4 -4 -5 -6 -7 -7
7 7 6 5 4 5 6 7 6 5 5 5 5 4 4 3 3 2 2 1 1 1 1 0 -0 -1 -1 -2 -2 -2 -3 -3 -4 -5 -5 -5 -5 -4 -4 -4 -5 -6 -7 -7
5 5 6 6 5 5 6 6 6 5 5 5 5 4 4 4 3 2 2 1 1 1 0 0 -0 -1 -2 -2 -2 -2 -3 -4 -4 -5 -5 -5 -4 -4 -4 -4 -5 -7 -7 -8
4 4 5 5 6 6 6 5 5 5 5 5 4 4 3 3 3 2 2 2 1 0 -1 -1 -1 -2 -2 -2 -2 -3 -3 -4 -4 -4 -4 -4 -4 -4 -4 -4 -5 -7 -7 -7
2 3 4 4 5 5 5 4 4 4 3 3 4 4 3 3 2 2 2 2 1 -1 -2 -2 -2 -3 -3 -3 -3 -3 -3 -4 -4 -4 -4 -3 -3 -4 -4 -5 -6 -7 -7 -7
1 1 2 3 4 4 4 4 3 3 2 2 3 3 3 3 2 2 2 2 1 -1 -3 -4 -4 -4 -4 -4 -3 -3 -3 -3 -3 -3 -3 -4 -4 -4 -4 -5 -6 -7 -7 -6
0 1 1 2 3 4 3 3 3 3 3 2 2 3 3 3 2 2 2 2 0 -2 -4 -5 -5 -4 -4 -4 -3 -3 -3 -3 -3 -3 -3 -4 -4 -4 -5 -5 -6 -7 -6 -5